Voltar ao catálogo

STARLINK-32312

AtivoComunicaçõesVLEO
NORAD 61711·PAYLOAD·🇺🇸 United States

Lançado Oct 30, 2024 de Cape Canaveral Space Force Station

Loading…

Próximas Passagens (próximas 24 horas)

TLE

AtualizadoSource: CelesTrak SupGP

Época: Sep 14, 2026, 21:16 UTC

1 61711C 24196E   26257.88659722  .00013144  00000+0  38845-3 0  2577
2 61711  53.1570 299.5990 0001113  88.6549 318.8568 15.34375036    15

Acompanhe STARLINK-32312 em tempo real com AllMySat

Download on the App Store